• In Hungary
  • List of Countries
  • For 7 days
  • Water Temperature
  • Satellite Maps
  • Weather Map
  • News
  • Weather Widgets
  • user-avatar
    Login

    Hourly Weather Ekaterinino

    Today, 21 July, Saturday

    Time Temperature Precipitation Wind Pressure Humidity
    00:00 +21°C° 0 mm 1 mps 740 mmHg 90%
    01:00 +21°C° 0 mm 1 mps 740 mmHg 91%
    02:00 +20°C° 0 mm 1 mps 741 mmHg 91%
    03:00 +20°C° 0 mm 1 mps 740 mmHg 92%
    04:00 +20°C° 0.2 mm 2 mps 741 mmHg 92%
    05:00 +20°C° 0.2 mm 2 mps 741 mmHg 93%
    06:00 +20°C° 0.2 mm 2 mps 741 mmHg 93%
    07:00 +21°C° 0.1 mm 2 mps 741 mmHg 88%
    08:00 +24°C° 0.1 mm 3 mps 741 mmHg 83%
    09:00 +23°C° 0 mm 4 mps 741 mmHg 79%
    10:00 +25°C° 0.2 mm 4 mps 741 mmHg 75%
    11:00 +26°C° 0.2 mm 4 mps 741 mmHg 71%
    12:00 +27°C° 0.2 mm 4 mps 741 mmHg 67%
    13:00 +27°C° 0.7 mm 4 mps 741 mmHg 68%
    14:00 +27°C° 0.7 mm 4 mps 740 mmHg 69%
    15:00 +28°C° 0.7 mm 4 mps 740 mmHg 69%
    16:00 +27°C° 0.9 mm 4 mps 740 mmHg 72%
    17:00 +27°C° 0.9 mm 3 mps 740 mmHg 75%
    18:00 +27°C° 0.9 mm 3 mps 740 mmHg 79%
    19:00 +25°C° 0.5 mm 3 mps 740 mmHg 82%
    20:00 +24°C° 0.5 mm 3 mps 740 mmHg 86%
    21:00 +22°C° 0.5 mm 3 mps 740 mmHg 90%
    22:00 +21°C° 0 mm 3 mps 741 mmHg 92%
    23:00 +21°C° 0 mm 3 mps 741 mmHg 93%

    Tomorrow, 22 July, Sunday

    Time Temperature Precipitation Wind Pressure Humidity
    00:00 +21°C° 0 mm 3 mps 741 mmHg 94%
    01:00 +20°C° 0 mm 3 mps 741 mmHg 95%
    02:00 +20°C° 0 mm 4 mps 741 mmHg 96%
    03:00 +20°C° 0 mm 4 mps 741 mmHg 97%
    04:00 +20°C° 0 mm 4 mps 741 mmHg 96%
    05:00 +20°C° 0 mm 4 mps 741 mmHg 96%
    06:00 +20°C° 0 mm 4 mps 741 mmHg 95%
    07:00 +20°C° 0.1 mm 4 mps 741 mmHg 94%
    08:00 +21°C° 0.1 mm 5 mps 741 mmHg 92%
    09:00 +21°C° 0.1 mm 5 mps 741 mmHg 90%
    10:00 +21°C° 0.1 mm 5 mps 742 mmHg 89%
    11:00 +22°C° 0.1 mm 5 mps 742 mmHg 87%
    12:00 +22°C° 0.1 mm 5 mps 742 mmHg 85%
    13:00 +22°C° 0.1 mm 5 mps 742 mmHg 84%
    14:00 +23°C° 0.1 mm 6 mps 742 mmHg 83%
    15:00 +23°C° 0.1 mm 6 mps 742 mmHg 82%
    16:00 +22°C° 0.1 mm 6 mps 742 mmHg 83%
    17:00 +22°C° 0.1 mm 6 mps 742 mmHg 84%
    18:00 +21°C° 0.1 mm 6 mps 742 mmHg 84%
    19:00 +21°C° 0 mm 6 mps 742 mmHg 85%
    20:00 +20°C° 0 mm 5 mps 742 mmHg 86%
    21:00 +20°C° 0 mm 5 mps 742 mmHg 87%
    22:00 +20°C° 0 mm 5 mps 742 mmHg 88%
    23:00 +20°C° 0 mm 5 mps 742 mmHg 89%

    Day after tomorrow, 23 July, Monday

    Time Temperature Precipitation Wind Pressure Humidity
    00:00 +20°C° 0 mm 5 mps 742 mmHg 90%
    01:00 +19°C° 0 mm 5 mps 742 mmHg 90%
    02:00 +19°C° 0 mm 5 mps 742 mmHg 91%
    03:00 +19°C° 0 mm 5 mps 742 mmHg 91%
    04:00 +19°C° 0.2 mm 5 mps 742 mmHg 91%
    05:00 +19°C° 0.2 mm 5 mps 742 mmHg 91%
    06:00 +19°C° 0.2 mm 5 mps 742 mmHg 91%
    07:00 +19°C° 0.1 mm 5 mps 742 mmHg 89%
    08:00 +20°C° 0.1 mm 5 mps 742 mmHg 87%
    09:00 +20°C° 0.1 mm 5 mps 742 mmHg 85%
    10:00 +22°C° 0.1 mm 5 mps 742 mmHg 82%
    11:00 +23°C° 0.1 mm 5 mps 742 mmHg 79%
    12:00 +25°C° 0.1 mm 5 mps 742 mmHg 76%
    13:00 +25°C° 0.8 mm 5 mps 743 mmHg 76%
    14:00 +26°C° 0.8 mm 5 mps 743 mmHg 76%
    15:00 +26°C° 0.8 mm 5 mps 743 mmHg 76%
    16:00 +26°C° 0.3 mm 5 mps 743 mmHg 78%
    17:00 +26°C° 0.3 mm 5 mps 743 mmHg 79%
    18:00 +26°C° 0.3 mm 5 mps 743 mmHg 81%
    19:00 +25°C° 0.6 mm 5 mps 743 mmHg 84%
    20:00 +22°C° 0.6 mm 5 mps 743 mmHg 87%
    21:00 +21°C° 0.6 mm 5 mps 743 mmHg 90%
    22:00 +21°C° 0.2 mm 4 mps 744 mmHg 90%
    23:00 +21°C° 0.2 mm 4 mps 744 mmHg 91%

    24 July, Tuesday

    Time Temperature Precipitation Wind Pressure Humidity
    00:00 +20°C° 0.2 mm 4 mps 744 mmHg 91%
    01:00 +20°C° 0 mm 4 mps 744 mmHg 91%
    02:00 +19°C° 0 mm 4 mps 744 mmHg 92%
    03:00 +19°C° 0 mm 4 mps 744 mmHg 92%
    04:00 +19°C° 0.1 mm 4 mps 744 mmHg 92%
    05:00 +19°C° 0.1 mm 4 mps 745 mmHg 92%
    06:00 +19°C° 0.1 mm 4 mps 745 mmHg 92%
    07:00 +20°C° 0 mm 4 mps 745 mmHg 88%
    08:00 +21°C° 0 mm 4 mps 745 mmHg 84%
    09:00 +22°C° 0 mm 5 mps 745 mmHg 80%
    10:00 +23°C° 0.1 mm 5 mps 746 mmHg 76%
    11:00 +25°C° 0.1 mm 5 mps 746 mmHg 72%
    12:00 +26°C° 0.1 mm 6 mps 746 mmHg 68%
    13:00 +26°C° 0.1 mm 6 mps 746 mmHg 67%
    14:00 +26°C° 0.1 mm 6 mps 746 mmHg 66%
    15:00 +27°C° 0.1 mm 6 mps 746 mmHg 65%
    16:00 +26°C° 0.1 mm 5 mps 746 mmHg 69%
    17:00 +25°C° 0.1 mm 5 mps 747 mmHg 72%
    18:00 +23°C° 0.1 mm 5 mps 747 mmHg 75%
    19:00 +23°C° 0 mm 5 mps 747 mmHg 73%
    20:00 +22°C° 0 mm 4 mps 747 mmHg 72%
    21:00 +22°C° 0 mm 4 mps 748 mmHg 70%
    22:00 +21°C° 0 mm 4 mps 748 mmHg 70%
    23:00 +21°C° 0 mm 4 mps 748 mmHg 71%

    25 July, Wednesday

    Time Temperature Precipitation Wind Pressure Humidity
    00:00 +20°C° 0 mm 4 mps 748 mmHg 71%
    01:00 +20°C° 0 mm 4 mps 748 mmHg 69%
    02:00 +20°C° 0 mm 4 mps 748 mmHg 68%
    03:00 +20°C° 0 mm 4 mps 748 mmHg 66%
    04:00 +20°C° 0 mm 4 mps 749 mmHg 67%
    05:00 +19°C° 0 mm 4 mps 749 mmHg 67%
    06:00 +19°C° 0 mm 4 mps 749 mmHg 68%
    07:00 +19°C° 0 mm 4 mps 749 mmHg 68%
    08:00 +20°C° 0 mm 4 mps 750 mmHg 68%
    09:00 +20°C° 0 mm 5 mps 750 mmHg 68%
    10:00 +21°C° 0 mm 5 mps 750 mmHg 66%
    11:00 +22°C° 0 mm 5 mps 750 mmHg 64%
    12:00 +23°C° 0 mm 5 mps 750 mmHg 62%
    13:00 +25°C° 0 mm 5 mps 750 mmHg 61%
    14:00 +25°C° 0 mm 5 mps 750 mmHg 60%
    15:00 +26°C° 0 mm 5 mps 750 mmHg 59%
    16:00 +26°C° 0 mm 5 mps 750 mmHg 63%
    17:00 +26°C° 0 mm 4 mps 750 mmHg 67%
    18:00 +26°C° 0 mm 4 mps 750 mmHg 70%
    19:00 +25°C° 0 mm 4 mps 750 mmHg 74%
    20:00 +24°C° 0 mm 3 mps 750 mmHg 78%
    21:00 +21°C° 0 mm 3 mps 750 mmHg 82%
    22:00 +21°C° 0 mm 4 mps 750 mmHg 81%
    23:00 +21°C° 0 mm 4 mps 751 mmHg 81%

    26 July, Thursday

    Time Temperature Precipitation Wind Pressure Humidity
    00:00 +21°C° 0 mm 4 mps 751 mmHg 80%
    01:00 +21°C° 0 mm 4 mps 751 mmHg 78%
    02:00 +20°C° 0 mm 4 mps 751 mmHg 77%
    03:00 +20°C° 0 mm 4 mps 751 mmHg 76%
    04:00 +20°C° 0 mm 4 mps 751 mmHg 76%
    05:00 +20°C° 0 mm 4 mps 751 mmHg 77%
    06:00 +20°C° 0 mm 4 mps 751 mmHg 77%
    07:00 +21°C° 0 mm 4 mps 751 mmHg 75%
    08:00 +22°C° 0 mm 5 mps 752 mmHg 72%
    09:00 +23°C° 0 mm 5 mps 752 mmHg 69%
    10:00 +26°C° 0 mm 5 mps 752 mmHg 64%
    11:00 +28°C° 0 mm 5 mps 752 mmHg 59%
    12:00 +30°C° 0 mm 6 mps 752 mmHg 54%
    13:00 +30°C° 0 mm 6 mps 752 mmHg 53%
    14:00 +30°C° 0 mm 6 mps 752 mmHg 52%
    15:00 +32°C° 0 mm 6 mps 752 mmHg 51%
    16:00 +30°C° 0 mm 5 mps 752 mmHg 55%
    17:00 +30°C° 0 mm 4 mps 752 mmHg 60%
    18:00 +29°C° 0 mm 4 mps 752 mmHg 65%
    19:00 +27°C° 0 mm 4 mps 752 mmHg 68%
    20:00 +26°C° 0 mm 4 mps 752 mmHg 72%
    21:00 +24°C° 0 mm 3 mps 752 mmHg 75%
    22:00 +22°C° 0 mm 3 mps 753 mmHg 76%
    23:00 +22°C° 0 mm 3 mps 753 mmHg 78%
    Show more